When you browse on this site, cookies collect data to enhance your experience and personalize the content and advertising you see.
Visit our Privacy Policy to learn more. By continuing to use the site, you agree to this use of cookies and data.
  • In Hungary
  • List of Countries
  • For 7 days
  • Water Temperature
  • Satellite Maps
  • Weather Map
  • News
  • Weather Widgets
  • user-avatar
    Login

    Hourly Weather Austin

    Today, 21 February, Thursday

    Time Temperature Precipitation Wind Pressure Humidity
    00:00 +8°C° 0 mm 2 mps 743 mmHg 67%
    01:00 +8°C° 0 mm 2 mps 743 mmHg 69%
    02:00 +8°C° 0 mm 2 mps 743 mmHg 70%
    03:00 +7°C° 0 mm 2 mps 743 mmHg 71%
    04:00 +7°C° 0 mm 2 mps 743 mmHg 72%
    05:00 +7°C° 0 mm 2 mps 743 mmHg 73%
    06:00 +8°C° 0 mm 2 mps 743 mmHg 72%
    07:00 +9°C° 0 mm 2 mps 743 mmHg 70%
    08:00 +9°C° 0 mm 2 mps 744 mmHg 69%
    09:00 +10°C° 0 mm 3 mps 744 mmHg 66%
    10:00 +11°C° 0 mm 3 mps 744 mmHg 64%
    11:00 +12°C° 0 mm 3 mps 744 mmHg 62%
    12:00 +12°C° 0 mm 3 mps 743 mmHg 63%
    13:00 +13°C° 0 mm 3 mps 743 mmHg 64%
    14:00 +15°C° 0 mm 2 mps 742 mmHg 64%
    15:00 +15°C° 0 mm 2 mps 742 mmHg 69%
    16:00 +14°C° 0 mm 2 mps 742 mmHg 74%
    17:00 +14°C° 0 mm 2 mps 742 mmHg 78%
    18:00 +14°C° 0 mm 2 mps 742 mmHg 83%
    19:00 +12°C° 0 mm 3 mps 742 mmHg 87%
    20:00 +11°C° 0 mm 3 mps 743 mmHg 91%
    21:00 +12°C° 0 mm 2 mps 743 mmHg 92%
    22:00 +12°C° 0 mm 1 mps 743 mmHg 93%
    23:00 +12°C° 0 mm 1 mps 743 mmHg 94%

    Tomorrow, 22 February, Friday

    Time Temperature Precipitation Wind Pressure Humidity
    00:00 +13°C° 0.1 mm 1 mps 743 mmHg 94%
    01:00 +13°C° 0.1 mm 1 mps 743 mmHg 94%
    02:00 +13°C° 0.1 mm 2 mps 742 mmHg 94%
    03:00 +14°C° 0.1 mm 2 mps 742 mmHg 95%
    04:00 +14°C° 0.1 mm 2 mps 742 mmHg 96%
    05:00 +13°C° 0.1 mm 3 mps 742 mmHg 97%
    06:00 +14°C° 0.1 mm 2 mps 742 mmHg 97%
    07:00 +15°C° 0.1 mm 2 mps 743 mmHg 97%
    08:00 +16°C° 0.1 mm 2 mps 743 mmHg 97%
    09:00 +16°C° 0.2 mm 1 mps 743 mmHg 97%
    10:00 +18°C° 0.2 mm 1 mps 743 mmHg 96%
    11:00 +16°C° 0.2 mm 0 mps 744 mmHg 96%
    12:00 +17°C° 0.1 mm 0 mps 743 mmHg 93%
    13:00 +20°C° 0.1 mm 1 mps 742 mmHg 90%
    14:00 +21°C° 0.1 mm 1 mps 741 mmHg 88%
    15:00 +21°C° 0 mm 1 mps 741 mmHg 89%
    16:00 +21°C° 0 mm 1 mps 741 mmHg 90%
    17:00 +20°C° 0 mm 2 mps 741 mmHg 92%
    18:00 +19°C° 0 mm 2 mps 741 mmHg 94%
    19:00 +18°C° 0 mm 2 mps 741 mmHg 96%
    20:00 +18°C° 0 mm 2 mps 741 mmHg 98%
    21:00 +19°C° 0.1 mm 3 mps 741 mmHg 98%
    22:00 +19°C° 0.1 mm 4 mps 741 mmHg 98%
    23:00 +20°C° 0.1 mm 5 mps 741 mmHg 97%

    Day after tomorrow, 23 February, Saturday

    Time Temperature Precipitation Wind Pressure Humidity
    00:00 +20°C° 0.1 mm 5 mps 740 mmHg 96%
    01:00 +20°C° 0.1 mm 6 mps 740 mmHg 95%
    02:00 +21°C° 0.1 mm 7 mps 739 mmHg 94%
    03:00 +21°C° 0.6 mm 6 mps 740 mmHg 93%
    04:00 +21°C° 0.6 mm 6 mps 740 mmHg 92%
    05:00 +21°C° 0.6 mm 5 mps 741 mmHg 91%
    06:00 +20°C° 0 mm 6 mps 742 mmHg 75%
    07:00 +17°C° 0 mm 7 mps 743 mmHg 58%
    08:00 +16°C° 0 mm 7 mps 743 mmHg 42%
    09:00 +17°C° 0 mm 8 mps 744 mmHg 36%
    10:00 +18°C° 0 mm 8 mps 744 mmHg 30%
    11:00 +19°C° 0 mm 9 mps 745 mmHg 24%
    12:00 +21°C° 0 mm 8 mps 745 mmHg 23%
    13:00 +21°C° 0 mm 8 mps 744 mmHg 22%
    14:00 +22°C° 0 mm 7 mps 744 mmHg 21%
    15:00 +21°C° 0 mm 6 mps 744 mmHg 24%
    16:00 +20°C° 0 mm 5 mps 744 mmHg 26%
    17:00 +19°C° 0 mm 4 mps 744 mmHg 29%
    18:00 +18°C° 0 mm 3 mps 745 mmHg 28%
    19:00 +17°C° 0 mm 3 mps 746 mmHg 27%
    20:00 +16°C° 0 mm 2 mps 747 mmHg 26%
    21:00 +15°C° 0 mm 2 mps 747 mmHg 26%
    22:00 +15°C° 0 mm 2 mps 748 mmHg 26%
    23:00 +14°C° 0 mm 2 mps 748 mmHg 26%

    24 February, Sunday

    Time Temperature Precipitation Wind Pressure Humidity
    00:00 +14°C° 0 mm 2 mps 748 mmHg 30%
    01:00 +12°C° 0 mm 3 mps 748 mmHg 33%
    02:00 +11°C° 0 mm 3 mps 748 mmHg 37%
    03:00 +10°C° 0 mm 3 mps 749 mmHg 39%
    04:00 +10°C° 0 mm 3 mps 750 mmHg 42%
    05:00 +9°C° 0 mm 3 mps 750 mmHg 44%
    06:00 +10°C° 0 mm 3 mps 751 mmHg 42%
    07:00 +10°C° 0 mm 3 mps 752 mmHg 39%
    08:00 +11°C° 0 mm 4 mps 752 mmHg 37%
    09:00 +13°C° 0 mm 3 mps 752 mmHg 34%
    10:00 +14°C° 0 mm 3 mps 752 mmHg 31%
    11:00 +17°C° 0 mm 3 mps 752 mmHg 28%
    12:00 +18°C° 0 mm 3 mps 751 mmHg 29%
    13:00 +18°C° 0 mm 3 mps 750 mmHg 29%
    14:00 +19°C° 0 mm 3 mps 750 mmHg 29%
    15:00 +18°C° 0 mm 3 mps 749 mmHg 34%
    16:00 +17°C° 0 mm 3 mps 749 mmHg 39%
    17:00 +16°C° 0 mm 3 mps 749 mmHg 44%
    18:00 +14°C° 0 mm 3 mps 750 mmHg 47%
    19:00 +13°C° 0 mm 3 mps 750 mmHg 50%
    20:00 +12°C° 0 mm 2 mps 750 mmHg 53%
    21:00 +12°C° 0 mm 2 mps 750 mmHg 55%
    22:00 +10°C° 0 mm 2 mps 750 mmHg 57%
    23:00 +10°C° 0 mm 2 mps 750 mmHg 59%

    25 February, Monday

    Time Temperature Precipitation Wind Pressure Humidity
    00:00 +9°C° 0 mm 2 mps 750 mmHg 60%
    01:00 +9°C° 0 mm 2 mps 750 mmHg 61%
    02:00 +9°C° 0 mm 2 mps 750 mmHg 63%
    03:00 +8°C° 0 mm 2 mps 750 mmHg 63%
    04:00 +8°C° 0 mm 2 mps 750 mmHg 64%
    05:00 +8°C° 0 mm 3 mps 750 mmHg 64%
    06:00 +9°C° 0 mm 3 mps 751 mmHg 60%
    07:00 +10°C° 0 mm 4 mps 751 mmHg 57%
    08:00 +11°C° 0 mm 4 mps 752 mmHg 54%
    09:00 +12°C° 0 mm 4 mps 751 mmHg 51%
    10:00 +14°C° 0 mm 4 mps 751 mmHg 49%
    11:00 +15°C° 0 mm 4 mps 751 mmHg 47%
    12:00 +16°C° 0 mm 5 mps 750 mmHg 49%
    13:00 +17°C° 0 mm 5 mps 749 mmHg 50%
    14:00 +17°C° 0 mm 5 mps 748 mmHg 52%
    15:00 +16°C° 0 mm 5 mps 748 mmHg 58%
    16:00 +16°C° 0 mm 5 mps 748 mmHg 64%
    17:00 +15°C° 0 mm 5 mps 748 mmHg 70%
    18:00 +14°C° 0 mm 4 mps 748 mmHg 73%
    19:00 +13°C° 0 mm 4 mps 749 mmHg 76%
    20:00 +13°C° 0 mm 4 mps 749 mmHg 79%
    21:00 +13°C° 0 mm 3 mps 749 mmHg 81%
    22:00 +12°C° 0 mm 3 mps 749 mmHg 83%
    23:00 +12°C° 0 mm 3 mps 749 mmHg 85%

    26 February, Tuesday

    Time Temperature Precipitation Wind Pressure Humidity
    00:00 +12°C° 0 mm 3 mps 748 mmHg 87%
    01:00 +12°C° 0 mm 3 mps 748 mmHg 88%
    02:00 +12°C° 0 mm 3 mps 748 mmHg 89%
    03:00 +12°C° 0.1 mm 3 mps 748 mmHg 90%
    04:00 +13°C° 0.1 mm 2 mps 748 mmHg 91%
    05:00 +13°C° 0.1 mm 2 mps 748 mmHg 92%
    06:00 +14°C° 0.1 mm 2 mps 748 mmHg 91%
    07:00 +14°C° 0.1 mm 2 mps 748 mmHg 91%
    08:00 +14°C° 0.1 mm 2 mps 748 mmHg 91%
    09:00 +14°C° 0 mm 2 mps 748 mmHg 89%
    10:00 +15°C° 0 mm 2 mps 748 mmHg 87%
    11:00 +16°C° 0 mm 2 mps 748 mmHg 85%
    12:00 +17°C° 0 mm 2 mps 747 mmHg 81%
    13:00 +19°C° 0 mm 2 mps 746 mmHg 78%
    14:00 +20°C° 0 mm 2 mps 746 mmHg 74%
    15:00 +20°C° 0 mm 2 mps 746 mmHg 77%
    16:00 +19°C° 0 mm 2 mps 746 mmHg 79%
    17:00 +19°C° 0 mm 2 mps 746 mmHg 82%
    18:00 +18°C° 0 mm 2 mps 746 mmHg 85%
    19:00 +18°C° 0 mm 2 mps 747 mmHg 88%
    20:00 +17°C° 0 mm 2 mps 747 mmHg 91%
    21:00 +17°C° 0 mm 2 mps 747 mmHg 92%
    22:00 +16°C° 0 mm 2 mps 747 mmHg 94%
    23:00 +16°C° 0 mm 2 mps 747 mmHg 95%
    Show more